Weather History for KDRM - November, 2012

Change the Weather History Date:

Tuesday, November 13, 2012

  Actual Average (KCIU) Record (KCIU)
Temperature  
Mean Temperature 32 °F -  
Max Temperature 39 °F 38 °F 55 °F (1999)
Min Temperature 26 °F 23 °F 9 °F (1983)
Degree Days  
Heating Degree Days 33    
Moisture  
Dew Point 25 °F    
Average Humidity 74    
Maximum Humidity 81    
Minimum Humidity 68    
Precipitation  
Precipitation 0.00 in - - ()
Sea Level Pressure  
Sea Level Pressure 30.29 in    
Wind  
Wind Speed 6 mph (WSW)    
Max Wind Speed 12 mph    
Max Gust Speed 18 mph    
Visibility 10 miles    
Events      
Averages and records for this station are not official NWS values.
T = Trace of Precipitation, MM = Missing Value Source: NWS Daily Summary

Daily Weather History Graph

Daily Weather History Graph

Search for Another Location

Airport or City:

Trip Planner

Search our weather history database for the weather conditions in past years. The results will help you decide how hot, cold, wet, or windy it might be!

Date:

Astronomy

Nov. 13, 2012 Rise Set
Actual Time 7:33 AM EST 5:04 PM EST
Civil Twilight 7:00 AM EST 5:37 PM EST
Nautical Twilight 6:24 AM EST 6:13 PM EST
Astronomical Twilight 5:49 AM EST 6:48 PM EST
Moon 7:10 AM EST (11/13) 4:55 PM EST (11/13)
Length of Visible Light 10h 36m
Length of Day
9h 31m
Waning Crescent, 0% of the Moon is Illuminated
Nov 13
Waning Crescent
Nov 13
New
Nov 20
First Quarter
Nov 28
Full
Dec 6
Last Quarter

Hourly Weather History & Observations

Time (EST) Temp. Windchill Dew Point Humidity Pressure Visibility Wind Dir Wind Speed Gust Speed Precip Events Conditions
12:16 AM 26.2 °F 20.7 °F 17.4 °F 69% 30.06 in 10.0 mi West 4.6 mph - N/A   Clear
12:36 AM 27.1 °F 19.7 °F 18.5 °F 70% 30.07 in 10.0 mi West 6.9 mph - N/A   Mostly Cloudy
12:56 AM 27.7 °F 20.4 °F 19.4 °F 71% 30.07 in 10.0 mi West 6.9 mph - N/A   Overcast
1:16 AM 28.0 °F 24.2 °F 20.1 °F 72% 30.08 in 10.0 mi West 3.5 mph - N/A   Overcast
1:36 AM 27.9 °F 22.6 °F 19.9 °F 72% 30.08 in 10.0 mi West 4.6 mph - N/A   Scattered Clouds
1:56 AM 28.2 °F 18.9 °F 20.5 °F 73% 30.09 in 10.0 mi West 10.4 mph 17.3 mph N/A   Clear
2:16 AM 28.4 °F 22.2 °F 21.2 °F 74% 30.09 in 10.0 mi West 5.8 mph - N/A   Clear
2:36 AM 28.4 °F 21.2 °F 21.2 °F 74% 30.11 in 10.0 mi West 6.9 mph - N/A   Clear
2:56 AM 28.0 °F 20.8 °F 21.2 °F 76% 30.12 in 10.0 mi West 6.9 mph - N/A   Scattered Clouds
3:16 AM 28.0 °F 19.3 °F 20.3 °F 73% 30.13 in 10.0 mi WNW 9.2 mph - N/A   Scattered Clouds
3:36 AM 27.9 °F 19.8 °F 19.9 °F 72% 30.13 in 10.0 mi West 8.1 mph - N/A   Clear
3:56 AM 27.9 °F 21.5 °F 19.8 °F 72% 30.14 in 10.0 mi West 5.8 mph - N/A   Clear
4:16 AM 27.9 °F 19.8 °F 19.8 °F 72% 30.14 in 10.0 mi West 8.1 mph - N/A   Clear
4:36 AM 27.9 °F 17.8 °F 19.8 °F 72% 30.15 in 10.0 mi West 11.5 mph 18.4 mph N/A   Clear
4:56 AM 27.5 °F 20.2 °F 20.3 °F 74% 30.16 in 10.0 mi West 6.9 mph - N/A   Clear
5:16 AM 27.5 °F 20.2 °F 20.1 °F 74% 30.17 in 10.0 mi West 6.9 mph - N/A   Clear
5:36 AM 27.5 °F 22.2 °F 20.3 °F 74% 30.18 in 10.0 mi WSW 4.6 mph - N/A   Clear
5:56 AM 27.3 °F 22.0 °F 19.9 °F 74% 30.19 in 10.0 mi West 4.6 mph - N/A   Clear
6:16 AM 27.5 °F 20.2 °F 20.7 °F 75% 30.20 in 10.0 mi WSW 6.9 mph - N/A   Clear
6:36 AM 27.5 °F 21.1 °F 21.0 °F 77% 30.20 in 10.0 mi West 5.8 mph - N/A   Clear
7:16 AM 28.4 °F 23.3 °F 22.5 °F 78% 30.22 in 10.0 mi West 4.6 mph - N/A   Clear
7:35 AM 28.4 °F 21.2 °F 22.8 °F 80% 30.23 in 10.0 mi WSW 6.9 mph - N/A   Scattered Clouds
7:56 AM 28.4 °F 23.3 °F 23.4 °F 81% 30.24 in 10.0 mi WSW 4.6 mph - N/A   Clear
8:16 AM 28.9 °F 23.9 °F 23.9 °F 81% 30.25 in 10.0 mi WSW 4.6 mph - N/A   Scattered Clouds
8:35 AM 30.0 °F 25.2 °F 24.4 °F 80% 30.26 in 10.0 mi WSW 4.6 mph - N/A   Mostly Cloudy
8:56 AM 30.9 °F 27.5 °F 24.4 °F 77% 30.28 in 10.0 mi WSW 3.5 mph - N/A   Overcast
9:16 AM 31.6 °F 25.1 °F 24.4 °F 75% 30.28 in 10.0 mi West 6.9 mph - N/A   Mostly Cloudy
9:36 AM 32.0 °F 26.4 °F 25.2 °F 76% 30.29 in 10.0 mi West 5.8 mph - N/A   Overcast
9:56 AM 32.0 °F 25.6 °F 25.7 °F 78% 30.29 in 10.0 mi West 6.9 mph - N/A   Overcast
10:16 AM 32.9 °F 29.8 °F 26.2 °F 76% 30.30 in 10.0 mi WSW 3.5 mph - N/A   Mostly Cloudy
10:36 AM 34.7 °F 29.6 °F 26.6 °F 72% 30.31 in 10.0 mi WSW 5.8 mph - N/A   Mostly Cloudy
10:56 AM 34.7 °F 31.8 °F 27.0 °F 73% 30.31 in 10.0 mi West 3.5 mph - N/A   Overcast
11:16 AM 34.3 °F 29.2 °F 27.5 °F 76% 30.32 in 10.0 mi West 5.8 mph - N/A   Overcast
11:36 AM 35.2 °F 31.2 °F 28.4 °F 76% 30.32 in 10.0 mi West 4.6 mph - N/A   Overcast
11:56 AM 35.8 °F 29.4 °F 28.2 °F 74% 30.32 in 10.0 mi WNW 8.1 mph - N/A   Overcast
12:16 PM 36.5 °F 32.7 °F 28.6 °F 73% 30.32 in 10.0 mi West 4.6 mph - N/A   Scattered Clouds
12:36 PM 37.4 °F 32.1 °F 28.9 °F 71% 30.32 in 10.0 mi NW 6.9 mph - N/A   Clear
12:55 PM 38.3 °F 33.9 °F 29.3 °F 70% 30.32 in 10.0 mi WNW 5.8 mph - N/A   Clear
1:16 PM 37.6 °F 34.0 °F 28.8 °F 70% 30.32 in 10.0 mi West 4.6 mph - N/A   Scattered Clouds
1:55 PM 38.1 °F 33.7 °F 28.9 °F 70% 30.33 in 10.0 mi SW 5.8 mph - N/A   Mostly Cloudy
2:16 PM 37.4 °F 32.1 °F 29.3 °F 73% 30.33 in 10.0 mi WSW 6.9 mph - N/A   Overcast
2:35 PM 36.9 °F 31.4 °F 30.6 °F 78% 30.33 in 10.0 mi WSW 6.9 mph - N/A   Overcast
2:56 PM 37.0 °F 31.6 °F 30.4 °F 77% 30.34 in 10.0 mi WSW 6.9 mph - N/A   Overcast
3:16 PM 37.0 °F 31.6 °F 30.2 °F 76% 30.34 in 10.0 mi WSW 6.9 mph - N/A   Overcast
3:35 PM 36.9 °F 30.7 °F 30.4 °F 77% 30.35 in 10.0 mi West 8.1 mph - N/A   Overcast
3:56 PM 36.7 °F 32.0 °F 29.5 °F 75% 30.35 in 10.0 mi WSW 5.8 mph - N/A   Overcast
4:16 PM 36.7 °F 32.9 °F 28.8 °F 73% 30.36 in 10.0 mi WSW 4.6 mph - N/A   Overcast
4:36 PM 36.5 °F 32.7 °F 28.4 °F 72% 30.38 in 10.0 mi West 4.6 mph 9.2 mph N/A   Overcast
4:56 PM 36.5 °F 31.0 °F 27.3 °F 69% 30.38 in 10.0 mi WSW 6.9 mph - N/A   Overcast
5:16 PM 36.1 °F 32.3 °F 26.4 °F 68% 30.38 in 10.0 mi West 4.6 mph - N/A   Overcast
5:36 PM 36.0 °F 32.1 °F 26.8 °F 69% 30.39 in 10.0 mi West 4.6 mph - N/A   Overcast
5:56 PM 35.8 °F 33.0 °F 26.6 °F 69% 30.40 in 10.0 mi West 3.5 mph - N/A   Overcast
6:16 PM 35.2 °F 32.4 °F 26.6 °F 71% 30.41 in 10.0 mi West 3.5 mph - N/A   Mostly Cloudy
6:36 PM 35.2 °F 32.4 °F 27.3 °F 73% 30.42 in 10.0 mi WSW 3.5 mph - N/A   Overcast
6:56 PM 35.6 °F 32.8 °F 27.5 °F 72% 30.42 in 10.0 mi WSW 3.5 mph - N/A   Overcast
7:15 PM 35.4 °F 32.6 °F 28.0 °F 75% 30.42 in 10.0 mi WSW 3.5 mph - N/A   Overcast
7:36 PM 35.6 °F 32.8 °F 28.4 °F 75% 30.43 in 10.0 mi West 3.5 mph - N/A   Overcast
7:56 PM 35.8 °F 30.1 °F 28.2 °F 74% 30.43 in 10.0 mi WSW 6.9 mph - N/A   Overcast
8:16 PM 36.0 °F 31.1 °F 27.5 °F 71% 30.43 in 10.0 mi WSW 5.8 mph - N/A   Overcast
8:36 PM 34.9 °F 32.0 °F 26.2 °F 71% 30.44 in 10.0 mi SW 3.5 mph - N/A   Scattered Clouds
8:55 PM 34.2 °F 30.0 °F 25.5 °F 71% 30.44 in 10.0 mi WSW 4.6 mph - N/A   Clear
9:16 PM 34.0 °F - 25.2 °F 70% 30.44 in 10.0 mi Calm Calm - N/A   Clear
9:36 PM 32.0 °F - 24.6 °F 74% 30.44 in 10.0 mi Calm Calm - N/A   Clear
9:56 PM 32.2 °F 27.7 °F 24.3 °F 73% 30.45 in 10.0 mi SW 4.6 mph - N/A   Clear
10:16 PM 32.2 °F 28.9 °F 24.3 °F 73% 30.45 in 10.0 mi SW 3.5 mph - N/A   Scattered Clouds
10:36 PM 32.0 °F 27.5 °F 24.3 °F 73% 30.45 in 10.0 mi SW 4.6 mph - N/A   Clear
10:56 PM 32.0 °F 28.7 °F 23.9 °F 72% 30.45 in 10.0 mi SSW 3.5 mph - N/A   Clear
11:16 PM 31.6 °F 27.0 °F 24.1 °F 74% 30.45 in 10.0 mi SSW 4.6 mph - N/A   Clear
11:36 PM 32.0 °F 26.4 °F 23.5 °F 71% 30.45 in 10.0 mi SSW 5.8 mph - N/A   Clear
11:56 PM 32.0 °F 28.7 °F 23.9 °F 72% 30.46 in 10.0 mi SW 3.5 mph - N/A   Clear